Location: Notre Dame Regional High School Observatory
(37.3056°N, 89.6097°W)
Time: 16:57:48
(UTC-06:00)

Okean-O - Visible Passes

Search period start: 26 February 2015 00:00
Search period end: 08 March 2015 00:00
Orbit: 642 x 643 km, 98.1° (Epoch: 26 February)

Date Brightness Start Highest point End Pass type
(mag) Time Alt. Az. Time Alt. Az. Time Alt. Az.
02 Mar 5.3 04:05:10 10° N 04:05:12 10° N 04:05:12 10° N visible
05 Mar 5.3 03:40:59 10° N 03:41:25 13° N 03:41:25 13° N visible
06 Mar 5.0 04:05:20 10° N 04:06:02 14° N 04:06:02 14° N visible
07 Mar 4.9 04:30:01 10° NNW 04:30:38 13° NNW 04:30:38 13° NNW visible
